INTELSAT 903 (IS-903)

Last updated on Fri Jan 01 2021 06:25:09 GMT+0000 (Greenwich Mean Time)

1 27403U 02016A 20366.86628235 -.00000011 00000-0 00000-0 0 9995 2 27403 2.7146 86.8412 0004468 195.4698 40.6880 0.99019090 25652
UTC large
Height (km)
Speed (km/s)
/
Latitude / Longitude
Inclination (degrees)
Orbital Period (minutes)
Azimuth
Elevation
Range (km)
Doppler Factor

Next 0 passes for location: London (51.5072 / 0.1276)

Sorry there are no passes over London.